Regional Weather Roundup
Issued by NWS Cleveland, OH

Home | Current Version | Previous Version | Text Only | Print | Product List | Glossary Off
Versions: 1 2 3 4 5 6 7 8 9 10 11 12 13 14 15 16 17 18 19 20 21 22 23 24 25 26 27 28 29 30 31 32 33 34 35 36 37 38 39 40 41 42 43 44 45 46 47 48 49 50

000
ASUS41 KCLE 291212
RWRCLE
OHIO REGIONAL WEATHER ROUNDUP
NATIONAL WEATHER SERVICE WILMINGTON, OH
800 AM EDT MON AUG 29 2016

NOTE: "FAIR" INDICATES FEW OR NO CLOUDS BELOW 12,000 FEET WITH NO
SIGNIFICANT WEATHER AND/OR OBSTRUCTIONS TO VISIBILITY.

OHZ001>008-015>018-024>027-034-035-043-044-291300-
   NORTHWEST OHIO

CITY           SKY/WX    TMP DP  RH WIND       PRES   REMARKS
DEFIANCE       FAIR      70  68  93 NE5       30.26R
FINDLAY        FAIR      72  69  90 NE7       30.24R FOG
TOLEDO EXPRESS FAIR      70  70 100 NE3       30.25R
TOLEDO EXEC    FAIR      74  71  91 NE6       30.25R
LIMA           FOG       70  70 100 NE5       30.25R VSB<1/4
$$

OHZ009>014-019>023-028>033-038-089-291300-
   NORTHEAST OHIO

CITY           SKY/WX    TMP DP  RH WIND       PRES   REMARKS
CLE-HOPKINS    PTSUNNY   76  67  73 E12       30.26R
CLE-LAKEFRONT  FAIR      75  65  70 NE14      30.24R
CUY CO. ARPT   MOSUNNY   73  70  88 E10       30.26R
LORAIN-ELYRIA  CLOUDY    72  68  87 NE3       30.26R
ASHTABULA      FAIR      68  65  90 CALM      30.27R
AKRON-CANTON   PTSUNNY   70  68  93 NE10      30.25R FOG
WOOSTER        CLOUDY    70  69  97 NE7       30.26R FOG
MANSFIELD      FOG       70  70 100 N7        30.27R VSB 1/4
YOUNGSTOWN     FAIR      69  67  93 NE10      30.25R
$$

OHZ042-051>053-060>062-070>072-077>081-291300-
  SOUTHWEST OHIO

CITY           SKY/WX    TMP DP  RH WIND       PRES   REMARKS
CINC-COVINGTON FAIR      70  69  97 N5        30.21R
CINC-LUNKEN    FAIR      68  68 100 E3        30.21R
HAMILTON       FAIR      69  68  96 CALM      30.23R FOG
DAYTON         FAIR      70  67  90 NE5       30.24R
WRIGHT-PAT AFB FAIR      69  69 100 VRB2      30.23R
DAYTON GENERAL FAIR      69  66  90 NE6       30.22R
WILMINGTON     FAIR      67  66  97 N6        30.22R
$$

OHZ036-037-039>041-045>050-054>059-063>069-073>076-082>088-291300-
  CENTRAL AND SOUTHEAST OHIO

CITY           SKY/WX    TMP DP  RH WIND       PRES   REMARKS
COLUMBUS       PTSUNNY   72  68  87 CALM      30.21R
OSU AIRPORT    FAIR      73  70  90 N3        30.23R
BOLTON FIELD   NOT AVBL
RICKENBACK AFB FAIR      72  69  92 NE3       30.21R
NEWARK         FAIR      71  68  90 NE3       30.23R
MARION         FAIR      69  67  93 NE5       30.24S FOG
LANCASTER      FAIR      72  69  90 CALM      30.22R
ZANESVILLE     FAIR      70  66  87 NE3       30.23R
NEW PHILLY     PTSUNNY   71  67  87 CALM      30.25R
$$




USA.gov is the U.S. government's official web portal to all federal, state and local government web resources and services.